Location: ??????????
(42.1626°N, 44.1160°E)
Time: 14:48:09
(UTC+00:00)

ASTEX 1 - Pass Details

Date: 03 March 2021
Orbit: 721 x 742 km, 92.7° (Epoch: 21 April)

Event Time Altitude Azimuth Distance (km) Brightness Sun altitude
Rises 16:03:07 0° 18° (NNE) 3,146 6.5 -13.2°
Reaches altitude 10° 16:05:50 10° 32° (NNE) 2,218 5.6 -13.7°
Maximum altitude 16:09:47 24° 87° (E) 1,467 4.4 -14.5°
Enters shadow 16:10:59 22° 109° (ESE) 1,549 4.5 -14.7°
